Regional Weather Roundup
Issued by NWS Jackson, KY

Home | Current Version | Previous Version | Graphics & Text | Print | Product List | Glossary On
Versions: 1 2 3 4 5 6 7 8 9 10 11 12 13 14 15 16 17 18 19 20 21 22 23 24 25 26 27 28
000
ASUS43 KJKL 131510
RWRJKL

EAST KENTUCKY HOURLY WEATHER ROUNDUP
NATIONAL WEATHER SERVICE JACKSON KY
1000 AM EST WED DEC 13 2017

NOTE: "FAIR" INDICATES FEW OR NO CLOUDS BELOW 12,000 FEET WITH
NO SIGNIFICANT WEATHER AND/OR OBSTRUCTIONS TO VISIBILITY.

* THESE REPORTS ARE NOT UNDER NWS QUALITY CONTROL AND MAY NOT
  REPORT WEATHER SUCH AS PRECIPITATION AND FOG.

KYZ079-080-083-085-087-088-110-112-115-119-120-131600
...EASTERN KENTUCKY...

CITY           SKY/WX    TMP DP  RH WIND       PRES   REMARKS
JACKSON        SUNNY     25  10  53 VRB6      29.93F WCI  18
LONDON         SUNNY     27   8  44 S10       29.96F WCI  17
SOMERSET*      SUNNY     28  10  47 S10       29.97F WCI  19
MONTICELLO*      N/A     32  14  47 E6        29.98F WCI  26
WILLIAMSBURG*  SUNNY     27  10  50 SE7       29.96F WCI  19
MIDDLESBORO*   SUNNY     28  12  51 CALM      30.00F
HARLAN APT*    SUNNY     27  10  50 CALM      29.96F
PIKE CO APT*     N/A     24   7  48 S7        29.93F WCI  16
BIG SANDY APT* SUNNY     25   8  48 SW8       29.94F WCI  17
MOREHEAD APT*  CLOUDY    25   7  46 S9        29.93F WCI  15
$$

KYZ035-036-041-042-044-050-067-078-099-131600
...CENTRAL KENTUCKY...

CITY           SKY/WX    TMP DP  RH WIND       PRES   REMARKS
MT STERLING*   SUNNY     27  10  50 SW7       29.94F WCI  19
FLEMING/MASON* MOSUNNY   24  12  61 S12       29.92F WCI  13
DANVILLE*      SUNNY     27  12  54 SW14      29.94S WCI  15
LEXINGTON      SUNNY     27  12  53 S12       29.91F WCI  17
FRANKFORT      SUNNY     27  10  49 S12       29.89F WCI  17
LOUISVILLE     SUNNY     31   8  38 S10G20    29.90F WCI  22
LEBANON*         N/A     27   9  46 S15G21    29.93F WCI  15
GLASGOW*       SUNNY     31  13  48 S8G16     29.96F WCI  23
BOWLING GREEN  SUNNY     32  14  47 S12       29.96F WCI  23
$$

KYZ091>093-OHZ055-061-077-WVZ005-015-034-035-042-131600
...SOUTHERN OHIO/WEST VIRGINIA...

CITY           SKY/WX    TMP DP  RH WIND       PRES   REMARKS
COVINGTON      CLOUDY    25  12  58 S13       29.83F WCI  14
COLUMBUS       CLOUDY    20  13  74 S10       29.86F WCI   9
DAYTON         CLOUDY    21  11  65 S10       29.82F WCI  10
WILMINGTON     CLOUDY    22  11  62 S15       29.83F WCI   9
HUNTINGTON     CLOUDY    23  10  57 S7        29.94F WCI  15
CHARLESTON     MOSUNNY   24   7  48 SW9       29.94F WCI  14
PINEVILLE*       N/A     23   8  51 MISG      29.97S
BECKLEY        CLOUDY    17   3  54 W8        29.84F WCI   7
BLUEFIELD      SUNNY     16   1  51 W10G22    29.84R WCI   4
LOGAN CO APT*  CLOUDY    23   9  54 CALM      29.91S
$$

VAZ002-007-008-TNZ017-027-036-066-071-131600
...SOUTHWEST VIRGINIA/EAST TENNESSEE...

CITY           SKY/WX    TMP DP  RH WIND       PRES   REMARKS
WISE*          SUNNY     25   5  42 SW12      29.89S WCI  14
JONESVILLE*      N/A     27   7  43 SW5       30.01F WCI  21
ABINGDON*      SUNNY     25   7  47 W13       29.94S WCI  13
BRISTOL        MOSUNNY   26   8  46 SW12      29.99F WCI  16
MORRISTOWN*    SUNNY     30   5  34 VRB6      29.98F WCI  24
SEVIERVILLE*   SUNNY     28  10  47 CALM      30.01F
KNOXVILLE      MOSUNNY   29  16  58 SW5       30.02F WCI  24
LAFOLLETTE*    SUNNY     28  10  47 CALM      30.03F
OAK RIDGE      SUNNY     28  11  48 W3        30.04F
CROSSVILLE     SUNNY     27   6  41 S7        29.97S WCI  19
NASHVILLE      MOSUNNY   34  11  38 S10       30.01S WCI  26
$$

...KEY TO REMARKS...
VSB - VISIBILITY IN MILES
WCI - WIND CHILL INDEX
HX  - HEAT INDEX

$$




USA.gov is the U.S. government's official web portal to all federal, state and local government web resources and services.